When you browse on this site, cookies collect data to enhance your experience and personalize the content and advertising you see.
Visit our Privacy Policy to learn more. By continuing to use the site, you agree to this use of cookies and data.
  • In United Kingdom
  • List of Countries
  • For 7 days
  • Water Temperature
  • Weather Map
  • Weather Widgets
  • user-avatar
    Login

    Hourly Weather Knighton

    Today, 11 December, Wednesday

    Time Temperature Precipitation Wind Pressure Humidity
    00:00 +1°C° 0 mm 4 mps 724 mmHg 88%
    01:00 +1°C° 0 mm 4 mps 724 mmHg 88%
    02:00 0°C° 0 mm 4 mps 724 mmHg 89%
    03:00 +1°C° 0 mm 3 mps 724 mmHg 89%
    04:00 +1°C° 0 mm 3 mps 723 mmHg 90%
    05:00 +1°C° 0 mm 3 mps 723 mmHg 90%
    06:00 +1°C° 0 mm 3 mps 723 mmHg 90%
    07:00 +1°C° 0 mm 3 mps 722 mmHg 90%
    08:00 +1°C° 0 mm 3 mps 722 mmHg 90%
    09:00 +1°C° 0 mm 3 mps 721 mmHg 91%
    10:00 +1°C° 0.1 mm 4 mps 721 mmHg 89%
    11:00 +1°C° 0.1 mm 5 mps 720 mmHg 88%
    12:00 +2°C° 0.1 mm 6 mps 720 mmHg 87%
    13:00 +2°C° 0.2 mm 5 mps 720 mmHg 86%
    14:00 +1°C° 0.2 mm 5 mps 720 mmHg 85%
    15:00 +1°C° 0.2 mm 4 mps 720 mmHg 84%
    16:00 0°C° 0 mm 4 mps 720 mmHg 85%
    17:00 0°C° 0 mm 4 mps 720 mmHg 86%
    18:00 -1°C° 0 mm 4 mps 721 mmHg 87%
    19:00 -1°C° 0 mm 4 mps 721 mmHg 87%
    20:00 -1°C° 0 mm 4 mps 721 mmHg 87%
    21:00 0°C° 0 mm 3 mps 722 mmHg 88%
    22:00 -1°C° 0 mm 3 mps 722 mmHg 88%
    23:00 -1°C° 0 mm 3 mps 721 mmHg 89%

    Tomorrow, 12 December, Thursday

    Time Temperature Precipitation Wind Pressure Humidity
    00:00 -1°C° 0 mm 3 mps 721 mmHg 90%
    01:00 -1°C° 0 mm 3 mps 721 mmHg 89%
    02:00 -1°C° 0 mm 3 mps 720 mmHg 89%
    03:00 -1°C° 0 mm 3 mps 720 mmHg 89%
    04:00 -1°C° 0 mm 3 mps 719 mmHg 89%
    05:00 0°C° 0 mm 3 mps 717 mmHg 90%
    06:00 0°C° 0 mm 3 mps 716 mmHg 91%
    07:00 -1°C° 0.2 mm 4 mps 715 mmHg 92%
    08:00 0°C° 0.2 mm 5 mps 713 mmHg 93%
    09:00 +1°C° 0.2 mm 5 mps 712 mmHg 95%
    10:00 +2°C° 1.5 mm 5 mps 711 mmHg 95%
    11:00 +3°C° 1.5 mm 4 mps 709 mmHg 96%
    12:00 +4°C° 1.5 mm 4 mps 708 mmHg 97%
    13:00 +4°C° 0.6 mm 4 mps 707 mmHg 96%
    14:00 +4°C° 0.6 mm 4 mps 706 mmHg 95%
    15:00 +4°C° 0.6 mm 4 mps 705 mmHg 95%
    16:00 +4°C° 0.1 mm 4 mps 705 mmHg 93%
    17:00 +3°C° 0.1 mm 5 mps 704 mmHg 92%
    18:00 +2°C° 0.1 mm 6 mps 703 mmHg 91%
    19:00 +2°C° 0.1 mm 6 mps 703 mmHg 90%
    20:00 +2°C° 0.1 mm 6 mps 702 mmHg 89%
    21:00 +2°C° 0.1 mm 6 mps 702 mmHg 88%
    22:00 +2°C° 0.2 mm 7 mps 702 mmHg 89%
    23:00 0°C° 0.2 mm 8 mps 701 mmHg 89%

    Day after tomorrow, 13 December, Friday

    Time Temperature Precipitation Wind Pressure Humidity
    00:00 0°C° 0.2 mm 8 mps 701 mmHg 89%
    01:00 0°C° 1 mm 10 mps 701 mmHg 89%
    02:00 -1°C° 1 mm 11 mps 701 mmHg 89%
    03:00 -1°C° 1 mm 12 mps 701 mmHg 90%
    04:00 -1°C° 0.4 mm 11 mps 702 mmHg 88%
    05:00 -1°C° 0.4 mm 11 mps 702 mmHg 87%
    06:00 0°C° 0.4 mm 10 mps 703 mmHg 86%
    07:00 0°C° 0 mm 9 mps 704 mmHg 87%
    08:00 +1°C° 0 mm 9 mps 704 mmHg 87%
    09:00 +1°C° 0 mm 8 mps 705 mmHg 87%
    10:00 +1°C° 0 mm 9 mps 706 mmHg 84%
    11:00 +2°C° 0 mm 9 mps 707 mmHg 82%
    12:00 +3°C° 0 mm 10 mps 708 mmHg 80%
    13:00 +2°C° 0 mm 10 mps 709 mmHg 79%
    14:00 +2°C° 0 mm 9 mps 710 mmHg 79%
    15:00 +2°C° 0 mm 8 mps 711 mmHg 78%
    16:00 +1°C° 0 mm 8 mps 711 mmHg 81%
    17:00 +2°C° 0 mm 7 mps 711 mmHg 83%
    18:00 +1°C° 0 mm 6 mps 711 mmHg 85%
    19:00 +1°C° 0.3 mm 5 mps 710 mmHg 88%
    20:00 0°C° 0.3 mm 5 mps 709 mmHg 91%
    21:00 0°C° 0.3 mm 5 mps 708 mmHg 94%
    22:00 0°C° 0.4 mm 7 mps 707 mmHg 88%
    23:00 +1°C° 0.4 mm 10 mps 706 mmHg 82%

    14 December, Saturday

    Time Temperature Precipitation Wind Pressure Humidity
    00:00 +2°C° 0.4 mm 12 mps 705 mmHg 76%
    01:00 +1°C° 0.1 mm 13 mps 705 mmHg 76%
    02:00 0°C° 0.1 mm 14 mps 706 mmHg 76%
    03:00 0°C° 0.1 mm 14 mps 706 mmHg 76%
    04:00 -1°C° 0 mm 13 mps 707 mmHg 74%
    05:00 -1°C° 0 mm 13 mps 708 mmHg 72%
    06:00 -2°C° 0 mm 12 mps 710 mmHg 70%
    07:00 -2°C° 0 mm 10 mps 710 mmHg 70%
    08:00 -1°C° 0 mm 9 mps 711 mmHg 71%
    09:00 -1°C° 0 mm 8 mps 712 mmHg 72%
    10:00 -1°C° 0 mm 8 mps 712 mmHg 70%
    11:00 0°C° 0 mm 9 mps 712 mmHg 68%
    12:00 0°C° 0 mm 9 mps 713 mmHg 67%
    13:00 0°C° 0.1 mm 9 mps 713 mmHg 66%
    14:00 -1°C° 0.1 mm 8 mps 713 mmHg 65%
    15:00 -1°C° 0.1 mm 8 mps 713 mmHg 64%
    16:00 -2°C° 0 mm 7 mps 714 mmHg 65%
    17:00 -3°C° 0 mm 6 mps 714 mmHg 66%
    18:00 -2°C° 0 mm 5 mps 714 mmHg 67%
    19:00 -3°C° 0 mm 4 mps 714 mmHg 69%
    20:00 -3°C° 0 mm 4 mps 714 mmHg 70%
    21:00 -2°C° 0 mm 3 mps 714 mmHg 71%
    22:00 -2°C° 0.2 mm 3 mps 713 mmHg 76%
    23:00 -2°C° 0.2 mm 3 mps 712 mmHg 80%

    15 December, Sunday

    Time Temperature Precipitation Wind Pressure Humidity
    00:00 -1°C° 0.2 mm 3 mps 710 mmHg 85%
    01:00 -1°C° 2.4 mm 3 mps 710 mmHg 88%
    02:00 -1°C° 2.4 mm 3 mps 709 mmHg 91%
    03:00 -2°C° 2.4 mm 4 mps 708 mmHg 95%
    04:00 -2°C° 0.2 mm 4 mps 709 mmHg 93%
    05:00 -2°C° 0.2 mm 5 mps 710 mmHg 91%
    06:00 -3°C° 0.2 mm 6 mps 711 mmHg 90%
    07:00 -3°C° 0 mm 6 mps 713 mmHg 88%
    08:00 -3°C° 0 mm 6 mps 714 mmHg 86%
    09:00 -2°C° 0 mm 5 mps 716 mmHg 84%
    10:00 -2°C° 0 mm 5 mps 717 mmHg 84%
    11:00 -1°C° 0 mm 5 mps 717 mmHg 85%
    12:00 -2°C° 0 mm 6 mps 718 mmHg 85%
    13:00 -1°C° 0.3 mm 5 mps 717 mmHg 89%
    14:00 -1°C° 0.3 mm 4 mps 717 mmHg 93%
    15:00 -1°C° 0.3 mm 4 mps 717 mmHg 96%
    16:00 -1°C° 0.4 mm 4 mps 717 mmHg 94%
    17:00 -1°C° 0.4 mm 4 mps 717 mmHg 91%
    18:00 -1°C° 0.4 mm 4 mps 717 mmHg 89%
    19:00 -2°C° 0 mm 4 mps 717 mmHg 88%
    20:00 -2°C° 0 mm 4 mps 718 mmHg 88%
    21:00 -2°C° 0 mm 4 mps 718 mmHg 87%
    22:00 -2°C° 0 mm 4 mps 718 mmHg 88%
    23:00 -2°C° 0 mm 4 mps 718 mmHg 89%

    16 December, Monday

    Time Temperature Precipitation Wind Pressure Humidity
    00:00 -2°C° 0 mm 4 mps 718 mmHg 90%
    01:00 -2°C° 0 mm 4 mps 718 mmHg 89%
    02:00 -2°C° 0 mm 4 mps 718 mmHg 89%
    03:00 -1°C° 0 mm 4 mps 718 mmHg 88%
    04:00 -2°C° 0 mm 4 mps 717 mmHg 88%
    05:00 -2°C° 0 mm 4 mps 717 mmHg 88%
    06:00 -2°C° 0 mm 4 mps 717 mmHg 88%
    07:00 -1°C° 0 mm 3 mps 717 mmHg 89%
    08:00 -1°C° 0 mm 3 mps 717 mmHg 89%
    09:00 -1°C° 0 mm 3 mps 717 mmHg 89%
    10:00 0°C° 0.1 mm 3 mps 717 mmHg 91%
    11:00 0°C° 0.1 mm 4 mps 717 mmHg 93%
    12:00 0°C° 0.1 mm 4 mps 717 mmHg 94%
    13:00 +1°C° 0.2 mm 3 mps 718 mmHg 95%
    14:00 +1°C° 0.2 mm 2 mps 718 mmHg 95%
    15:00 +1°C° 0.2 mm 2 mps 718 mmHg 95%
    16:00 -1°C° 0 mm 2 mps 718 mmHg 93%
    17:00 0°C° 0 mm 1 mps 718 mmHg 90%
    18:00 -1°C° 0 mm 1 mps 719 mmHg 88%
    19:00 -1°C° 0 mm 1 mps 719 mmHg 87%
    20:00 -1°C° 0 mm 1 mps 719 mmHg 87%
    21:00 -1°C° 0 mm 1 mps 720 mmHg 87%
    22:00 -1°C° 0 mm 1 mps 720 mmHg 87%
    23:00 -1°C° 0 mm 1 mps 720 mmHg 87%
    Show more